Lincoln, NE

11:16 PM CDT on March 27, 2017 (GMT -0500)
Lincoln Municipal

Weather History for KLNK - June, 2012

Change the Weather History Date:

Friday, June 15, 2012

  Actual Average Record
Temperature  
Mean Temperature 70 °F 73 °F  
Max Temperature 76 °F 84 °F 108 °F (1946)
Min Temperature 63 °F 61 °F 44 °F (1989)
Degree Days  
Heating Degree Days 0 0  
Month to date heating degree days 11 13  
Since 1 June heating degree days 11 13  
Since 1 July heating degree days 5094 6053  
Cooling Degree Days 5 8  
Month to date cooling degree days 115 92  
Year to date cooling degree days 306 171  
Since 1 June cooling degree days 115 92  
Growing Degree Days 20 (Base 50)    
Moisture  
Dew Point 64 °F    
Average Humidity 84    
Maximum Humidity 100    
Minimum Humidity 68    
Precipitation  
Precipitation 0.67 in 0.14 in 2.88 in (1925)
Month to date precipitation 2.73 2.19  
Year to date precipitation 12.37 12.53  
Snow  
Snow 0.00 in 0.00 in - ()
Month to date snowfall 0.0 0.0  
Since 1 July snowfall 18.8 25.9  
Snow Depth 0.00 in    
Sea Level Pressure  
Sea Level Pressure 29.92 in    
Wind  
Wind Speed 7 mph (NNE)    
Max Wind Speed 23 mph    
Max Gust Speed 30 mph    
Visibility 9 miles    
Events Rain , Thunderstorm    
T = Trace of Precipitation, MM = Missing Value Source: NWS Daily Summary

Daily Weather History Graph

Daily Weather History Graph

Search for Another Location

Airport or City:

Trip Planner

Search our weather history database for the weather conditions in past years. The results will help you decide how hot, cold, wet, or windy it might be!

Date:

Astronomy

Jun. 15, 2012 Rise Set
Actual Time 5:54 AM CDT 9:00 PM CDT
Civil Twilight 5:21 AM CDT 9:34 PM CDT
Nautical Twilight 4:38 AM CDT 10:16 PM CDT
Astronomical Twilight 3:48 AM CDT 11:07 PM CDT
Moon 3:10 AM CDT (6/15) 5:40 PM CDT (6/15)
Length of Visible Light 16h 12m
Length of Day
15h 05m
Waning Crescent, 13% of the Moon is Illuminated
Jun 15
Waning Crescent
Jun 19
New
Jun 26
First Quarter
Jul 3
Full
Jul 10
Last Quarter

Hourly Weather History & Observations

Time (CDT) Temp. Dew Point Humidity Pressure Visibility Wind Dir Wind Speed Gust Speed Precip Events Conditions
12:54 AM 64.9 °F 62.1 °F 90% 29.89 in 3.0 mi Calm Calm - 0.14 in Rain , Thunderstorm Thunderstorms and Rain
1:54 AM 64.9 °F 62.1 °F 90% 29.85 in 9.0 mi ESE 10.4 mph - 0.12 in Rain , Thunderstorm Light Thunderstorms and Rain
2:54 AM 66.0 °F 62.1 °F 87% 29.81 in 10.0 mi East 18.4 mph - 0.04 in Rain , Thunderstorm Light Thunderstorms and Rain
3:19 AM 66.2 °F 62.6 °F 88% 29.86 in 1.8 mi East 20.7 mph 25.3 mph 0.10 in Rain , Thunderstorm Heavy Thunderstorms and Rain
3:28 AM 66.2 °F 62.6 °F 88% 29.86 in 2.0 mi East 17.3 mph - 0.32 in Rain , Thunderstorm Heavy Thunderstorms and Rain
3:32 AM 66.2 °F 62.6 °F 88% 29.85 in 3.0 mi East 13.8 mph - 0.36 in Rain , Thunderstorm Heavy Thunderstorms and Rain
3:54 AM 66.0 °F 63.0 °F 90% 29.81 in 7.0 mi East 12.7 mph - 0.41 in Rain , Thunderstorm Light Thunderstorms and Rain
4:28 AM 66.2 °F 62.6 °F 88% 29.90 in 10.0 mi NW 13.8 mph 26.5 mph 0.01 in Rain , Thunderstorm Light Thunderstorms and Rain
4:54 AM 64.9 °F 63.0 °F 93% 29.87 in 9.0 mi NNE 5.8 mph - 0.02 in Rain , Thunderstorm Light Thunderstorms and Rain
5:13 AM 64.4 °F 62.6 °F 94% 29.90 in 10.0 mi North 4.6 mph - 0.00 in Rain , Thunderstorm Light Thunderstorms and Rain
5:20 AM 64.4 °F 62.6 °F 94% 29.90 in 10.0 mi NNW 3.5 mph - 0.00 in Rain , Thunderstorm Light Thunderstorms and Rain
5:22 AM 64.4 °F 62.6 °F 94% 29.90 in 10.0 mi NNW 3.5 mph - 0.00 in   Overcast
5:30 AM 64.4 °F 62.6 °F 94% 29.90 in 10.0 mi WNW 3.5 mph - 0.00 in   Overcast
5:54 AM 64.9 °F 63.0 °F 93% 29.88 in 6.0 mi West 4.6 mph - 0.00 in Rain Light Rain
6:09 AM 64.4 °F 62.6 °F 94% 29.93 in 5.0 mi WNW 3.5 mph - 0.01 in Rain Light Rain
6:16 AM 64.4 °F 62.6 °F 94% 29.93 in 5.0 mi NNW 4.6 mph - 0.01 in Rain Light Rain
6:54 AM 64.9 °F 64.0 °F 97% 29.91 in 7.0 mi North 6.9 mph - 0.05 in Rain Light Rain
7:42 AM 66.2 °F 64.4 °F 94% 29.94 in 7.0 mi NNW 5.8 mph - 0.02 in Rain Light Rain
7:54 AM 64.9 °F 64.0 °F 97% 29.93 in 5.0 mi NNW 4.6 mph - 0.02 in Rain Light Rain
8:41 AM 66.2 °F 64.4 °F 94% 29.94 in 10.0 mi NW 6.9 mph - 0.02 in Rain Light Rain
8:54 AM 66.0 °F 64.0 °F 93% 29.94 in 10.0 mi NW 8.1 mph - 0.02 in   Overcast
9:54 AM 66.9 °F 64.0 °F 90% 29.93 in 10.0 mi NNW 9.2 mph - 0.01 in   Overcast
10:22 AM 68.0 °F 64.4 °F 88% 29.94 in 10.0 mi NNW 8.1 mph - N/A   Overcast
10:54 AM 70.0 °F 64.9 °F 84% 29.92 in 10.0 mi North 6.9 mph - N/A   Mostly Cloudy
11:31 AM 69.8 °F 64.4 °F 83% 29.94 in 10.0 mi NNE 8.1 mph - N/A   Overcast
11:44 AM 69.8 °F 64.4 °F 83% 29.95 in 10.0 mi NE 9.2 mph - N/A   Overcast
11:54 AM 69.8 °F 64.4 °F 83% 29.96 in 10.0 mi NE 8.1 mph - N/A   Overcast
12:07 PM 69.8 °F 64.4 °F 83% 29.96 in 10.0 mi NNE 6.9 mph - N/A   Overcast
12:42 PM 71.6 °F 64.4 °F 78% 29.97 in 10.0 mi North 3.5 mph - N/A   Overcast
12:51 PM 71.6 °F 64.4 °F 78% 29.96 in 10.0 mi NNE 6.9 mph - N/A   Overcast
12:54 PM 71.1 °F 64.0 °F 78% 29.94 in 10.0 mi North 5.8 mph - N/A   Overcast
1:02 PM 71.6 °F 64.4 °F 78% 29.96 in 10.0 mi NE 8.1 mph - N/A   Overcast
1:28 PM 73.4 °F 64.4 °F 73% 29.96 in 10.0 mi NE 10.4 mph - N/A   Overcast
1:37 PM 73.4 °F 64.4 °F 73% 29.96 in 10.0 mi NE 12.7 mph - N/A   Mostly Cloudy
1:54 PM 73.9 °F 64.0 °F 71% 29.94 in 10.0 mi NE 11.5 mph - N/A   Mostly Cloudy
1:56 PM 73.4 °F 64.4 °F 73% 29.96 in 10.0 mi NE 10.4 mph - N/A   Mostly Cloudy
2:54 PM 71.1 °F 64.0 °F 78% 29.95 in 10.0 mi NNE 9.2 mph - N/A   Mostly Cloudy
3:01 PM 71.6 °F 64.4 °F 78% 29.97 in 10.0 mi NE 8.1 mph - N/A   Overcast
3:54 PM 73.0 °F 64.0 °F 73% 29.95 in 10.0 mi NNE 5.8 mph - N/A   Mostly Cloudy
4:54 PM 75.0 °F 64.0 °F 69% 29.92 in 10.0 mi NNE 9.2 mph - N/A   Mostly Cloudy
5:02 PM 75.2 °F 64.4 °F 69% 29.94 in 10.0 mi NE 10.4 mph - N/A   Scattered Clouds
5:32 PM 73.4 °F 62.6 °F 69% 29.92 in 10.0 mi North 8.1 mph - N/A   Mostly Cloudy
5:54 PM 75.9 °F 64.0 °F 67% 29.89 in 10.0 mi North 9.2 mph - N/A   Overcast
6:51 PM 73.4 °F 62.6 °F 69% 29.93 in 10.0 mi NE 10.4 mph - N/A   Overcast
6:54 PM 73.0 °F 63.0 °F 71% 29.91 in 10.0 mi NE 6.9 mph - N/A   Overcast
7:01 PM 73.4 °F 64.4 °F 73% 29.94 in 10.0 mi NE 6.9 mph - N/A   Overcast
7:09 PM 71.6 °F 64.4 °F 78% 29.94 in 10.0 mi ENE 5.8 mph - N/A   Overcast
7:54 PM 72.0 °F 64.0 °F 76% 29.92 in 10.0 mi NE 6.9 mph - N/A   Overcast
8:54 PM 69.1 °F 63.0 °F 81% 29.93 in 10.0 mi NNE 3.5 mph - N/A   Clear
9:54 PM 66.0 °F 63.0 °F 90% 29.93 in 9.0 mi NW 3.5 mph - N/A   Clear
10:54 PM 66.0 °F 64.0 °F 93% 29.94 in 8.0 mi North 5.8 mph - N/A   Clear
11:54 PM 63.0 °F 62.1 °F 97% 29.94 in 7.0 mi North 3.5 mph - N/A   Clear